Weather History for KBLF - September, 2013

Change the Weather History Date:

Tuesday, September 24, 2013

  Actual Average Record
Temperature  
Mean Temperature 62 °F 63 °F  
Max Temperature 76 °F 72 °F 88 °F (2007)
Min Temperature 48 °F 54 °F 30 °F (1989)
Degree Days  
Heating Degree Days 3 4  
Month to date heating degree days 38 44  
Since 1 July heating degree days 44 50  
Cooling Degree Days 0 2  
Month to date cooling degree days 103 89  
Year to date cooling degree days 905 823  
Growing Degree Days 12 (Base 50)    
Moisture  
Dew Point 50 °F    
Average Humidity 66    
Maximum Humidity 89    
Minimum Humidity 43    
Precipitation  
Precipitation 0.00 in 0.11 in 0.82 in (1988)
Month to date precipitation 1.46 2.50  
Year to date precipitation 31.68 30.89  
Snow  
Snow 0.00 in - - ()
Month to date snowfall 0.0  
Since 1 July snowfall 0.0  
Since 1 September snowfall 0.0  
Snow Depth 0.00 in    
Sea Level Pressure  
Sea Level Pressure 30.03 in    
Wind  
Wind Speed 2 mph (WSW)    
Max Wind Speed 12 mph    
Max Gust Speed 17 mph    
Visibility 8 miles    
Events Fog    
T = Trace of Precipitation, MM = Missing Value Source: NWS Daily Summary

Daily Weather History Graph

Daily Weather History Graph

Search for Another Location

Airport or City:

Trip Planner

Search our weather history database for the weather conditions in past years. The results will help you decide how hot, cold, wet, or windy it might be!

Date:

Astronomy

Sep. 24, 2013 Rise Set
Actual Time 7:14 AM EDT 7:18 PM EDT
Civil Twilight 6:48 AM EDT 7:44 PM EDT
Nautical Twilight 6:18 AM EDT 8:14 PM EDT
Astronomical Twilight 5:47 AM EDT 8:45 PM EDT
Moon 10:41 PM EDT (9/24) 12:21 PM EDT (9/24)
Length of Visible Light 12h 55m
Length of Day
12h 03m
Waning Gibbous, 73% of the Moon is Illuminated
Sep 24
Waning Gibbous
Sep 26
Last Quarter
Oct 4
New
Oct 11
First Quarter
Oct 18
Full

Hourly Weather History & Observations

Time (EDT) Temp. Dew Point Humidity Pressure Visibility Wind Dir Wind Speed Gust Speed Precip Events Conditions
12:52 AM 54.0 °F 48.0 °F 80% 30.05 in 10.0 mi Calm Calm - N/A   Clear
1:52 AM 54.0 °F 48.0 °F 80% 30.04 in 10.0 mi ESE 3.5 mph - N/A   Clear
2:52 AM 54.0 °F 46.9 °F 77% 30.04 in 10.0 mi Calm Calm - N/A   Clear
3:52 AM 55.0 °F 48.0 °F 77% 30.04 in 10.0 mi East 3.5 mph - 0.01 in   Clear
4:52 AM 51.1 °F 46.0 °F 83% 30.04 in 8.0 mi Calm Calm - N/A   Clear
5:52 AM 53.1 °F 48.0 °F 83% 30.05 in 10.0 mi Calm Calm - N/A   Clear
6:50 AM 51.8 °F 46.4 °F 82% 30.12 in 1.8 mi Calm Calm - N/A   Clear
6:52 AM 51.1 °F 46.0 °F 83% 30.06 in 1.5 mi Calm Calm - N/A   Haze
6:56 AM 51.8 °F 46.4 °F 82% 30.12 in 0.8 mi Calm Calm - N/A   Haze
7:15 AM 50.0 °F 46.4 °F 87% 30.12 in 0.2 mi Calm Calm - N/A Fog Fog
7:52 AM 48.0 °F 45.0 °F 89% 30.09 in 0.2 mi Calm Calm - N/A Fog Fog
8:52 AM 52.0 °F 48.0 °F 86% 30.08 in 0.2 mi Calm Calm - N/A Fog Fog
9:17 AM 53.6 °F 50.0 °F 88% 30.13 in 1.2 mi Calm Calm - N/A   Mostly Cloudy
9:19 AM 55.4 °F 50.0 °F 82% 30.13 in 3.0 mi Calm Calm - N/A   Haze
9:28 AM 57.2 °F 51.8 °F 82% 30.13 in 10.0 mi Calm Calm - N/A   Scattered Clouds
9:52 AM 60.1 °F 53.1 °F 78% 30.07 in 10.0 mi Calm Calm - N/A   Partly Cloudy
10:52 AM 66.0 °F 54.0 °F 65% 30.06 in 10.0 mi WNW 5.8 mph - N/A   Clear
11:52 AM 70.0 °F 53.1 °F 55% 30.04 in 10.0 mi West 9.2 mph - N/A   Partly Cloudy
12:52 PM 72.0 °F 52.0 °F 49% 30.03 in 10.0 mi WNW 10.4 mph - N/A   Scattered Clouds
1:52 PM 73.0 °F 52.0 °F 48% 30.00 in 10.0 mi WNW 6.9 mph - N/A   Clear
2:52 PM 75.0 °F 52.0 °F 44% 29.97 in 10.0 mi WNW 6.9 mph - N/A   Partly Cloudy
3:52 PM 75.0 °F 52.0 °F 44% 29.96 in 10.0 mi Variable 3.5 mph - N/A   Clear
4:52 PM 75.0 °F 52.0 °F 44% 29.96 in 10.0 mi Calm Calm - N/A   Partly Cloudy
5:52 PM 75.0 °F 51.1 °F 43% 29.94 in 10.0 mi Calm Calm - N/A   Clear
6:52 PM 71.1 °F 53.1 °F 53% 29.94 in 10.0 mi Calm Calm - N/A   Clear
7:52 PM 64.9 °F 54.0 °F 68% 29.96 in 10.0 mi Calm Calm - N/A   Clear
8:52 PM 66.0 °F 55.0 °F 68% 29.95 in 10.0 mi Calm Calm - N/A   Clear
9:52 PM 64.9 °F 55.0 °F 70% 29.95 in 10.0 mi Calm Calm - N/A   Clear
10:52 PM 64.9 °F 55.9 °F 73% 29.94 in 10.0 mi South 4.6 mph - N/A   Scattered Clouds
11:52 PM 64.0 °F 55.0 °F 73% 29.93 in 10.0 mi South 4.6 mph - N/A   Clear